"startDT [UTC]","vpos","CH4 [ppm]","stdev(CH4) [ppm]","CO2 [ppm]","stdev(CO2) [ppm]","H2O_reported [%]","stdev(H2O_reported)","CavityPressure [torr]","CavityTemp [C]","OutletValve","CH4_dry [ppm]","CO2_dry [ppm]","DasTemp [C]","EtalonTemp [C]","WarmBoxTemp [C]","MPVPosition","T_ECpre [C]","T_EC1 [C]","T_EC2 [C]","p_inlet [hPa]","p_in [hPa]","p_out [hPa]","T_inlet [C]","RH_inlet [%]","dwpt_inlet [C]","T_vent [C]","RH_vent [%]","dwpt_vent [C]","flow_vent [l min-1]","flow_inlet [l min-1]","dwpt_sample [C]","T_room [C]"
2015-11-14 00:00:00,0.0,1.93036,0.00027,401.283,0.028,0.1245,0.0012,139.999,45.000,31522.22966,1.93274,401.884,32.063,45.070,45.000,0.00,0.09,-272.74,-272.80,-4,518,-944,17.6,4.8,-23.1,17.7,4.8,-22.8,5.73,2.10,-12.4,24.0
2015-11-14 00:01:00,0.0,1.93040,0.00044,401.309,0.031,0.1241,0.0015,140.000,45.000,31520.34077,1.93275,401.909,32.054,45.070,45.000,0.00,0.09,-272.74,-272.80,-4,518,-945,17.6,4.8,-23.1,17.7,4.8,-22.8,5.73,2.03,-12.4,24.0
2015-11-14 00:02:00,0.0,1.93029,0.00043,401.284,0.033,0.1233,0.0018,140.002,45.000,31521.25231,1.93263,401.880,32.015,45.070,45.000,0.00,0.09,-272.73,-272.80,-4,518,-944,17.6,4.8,-23.1,17.7,4.8,-22.8,5.73,1.96,-12.4,24.0
2015-11-14 00:03:00,0.0,1.93057,0.00033,401.334,0.034,0.1233,0.0016,139.999,45.000,31520.92812,1.93293,401.931,32.001,45.070,45.000,0.00,0.09,-272.74,-272.80,-4,518,-945,17.6,4.8,-23.1,17.7,4.8,-22.8,5.73,1.92,-12.4,24.0
2015-11-14 00:04:00,0.0,1.93073,0.00038,401.349,0.030,0.1237,0.0015,140.002,45.000,31522.80051,1.93309,401.947,32.001,45.070,45.000,0.00,0.09,-272.74,-272.80,-4,518,-945,17.6,4.7,-23.1,17.7,4.8,-22.8,5.73,1.93,-12.4,24.0
2015-11-14 00:05:00,0.0,1.93100,0.00045,401.385,0.033,0.1224,0.0017,139.999,45.000,31521.91650,1.93332,401.977,32.000,45.070,45.000,0.00,0.09,-272.74,-272.79,-3,518,-945,17.6,4.7,-23.2,17.7,4.8,-22.9,5.73,2.00,-12.4,23.9
2015-11-14 00:06:00,0.0,1.93073,0.00035,401.371,0.035,0.1227,0.0015,140.002,45.000,31522.27211,1.93304,401.965,32.000,45.070,45.000,0.00,0.09,-272.74,-272.79,-3,518,-945,17.6,4.7,-23.2,17.7,4.8,-22.9,5.73,2.07,-12.4,23.9
2015-11-14 00:07:00,0.0,1.93045,0.00047,401.390,0.034,0.1219,0.0017,140.003,45.000,31522.88190,1.93283,401.978,31.989,45.070,45.000,0.00,0.09,-272.75,-272.79,-4,518,-945,17.6,4.7,-23.2,17.7,4.8,-22.9,5.73,2.11,-12.4,23.9
2015-11-14 00:08:00,0.0,1.93012,0.00046,401.351,0.028,0.1227,0.0014,139.998,45.000,31522.18220,1.93242,401.945,31.957,45.070,45.000,0.00,0.09,-272.74,-272.79,-3,518,-945,17.5,4.7,-23.2,17.7,4.8,-22.9,5.73,2.11,-12.5,23.9
2015-11-14 00:09:00,0.0,1.92990,0.00032,401.370,0.032,0.1229,0.0019,139.999,45.000,31520.50165,1.93226,401.965,31.939,45.070,45.000,0.00,0.09,-272.74,-272.79,-3,518,-944,17.6,4.7,-23.2,17.7,4.8,-22.9,5.73,2.05,-12.5,23.9
2015-11-14 00:10:00,0.0,1.93005,0.00039,401.339,0.050,0.1231,0.0018,139.997,45.000,31519.70019,1.93241,401.934,31.938,45.070,45.000,0.00,0.09,-272.75,-272.80,-3,518,-944,17.5,4.7,-23.2,17.7,4.8,-22.9,5.73,1.98,-12.5,23.9
2015-11-14 00:11:00,0.0,1.93016,0.00035,401.360,0.031,0.1240,0.0014,140.001,45.000,31518.90221,1.93250,401.960,31.934,45.070,45.000,0.00,0.09,-272.74,-272.79,-3,517,-944,17.5,4.8,-23.1,17.7,4.8,-22.8,5.73,1.94,-12.5,23.9
2015-11-14 00:12:00,0.0,1.93028,0.00040,401.375,0.032,0.1241,0.0013,139.999,44.999,31517.59142,1.93264,401.976,31.917,45.070,45.000,0.00,0.09,-272.73,-272.79,-3,517,-944,17.5,4.8,-23.1,17.6,4.8,-22.8,5.73,1.93,-12.5,23.9
2015-11-14 00:13:00,0.0,1.93035,0.00038,401.384,0.030,0.1244,0.0015,140.000,45.000,31519.00161,1.93270,401.984,31.876,45.070,45.000,0.00,0.09,-272.74,-272.79,-3,517,-944,17.5,4.8,-23.1,17.7,4.8,-22.8,5.73,1.97,-12.5,23.9
2015-11-14 00:14:00,0.0,1.93027,0.00037,401.414,0.032,0.1239,0.0015,139.997,45.000,31519.80797,1.93267,402.015,31.876,45.070,45.000,0.00,0.09,-272.74,-272.80,-3,517,-944,17.5,4.8,-23.1,17.7,4.8,-22.8,5.73,2.04,-12.5,23.9
2015-11-14 00:15:00,0.0,1.93042,0.00046,401.404,0.035,0.1232,0.0019,139.999,45.000,31519.64101,1.93275,401.998,31.888,45.070,45.000,0.00,0.09,-272.74,-272.80,-3,518,-944,17.5,4.8,-23.1,17.7,4.8,-22.8,5.73,2.09,-12.5,23.9
2015-11-14 00:16:00,0.0,1.93035,0.00040,401.410,0.033,0.1234,0.0017,139.999,45.000,31519.41268,1.93268,402.007,31.928,45.070,45.000,0.00,0.09,-272.74,-272.79,-3,517,-944,17.5,4.8,-23.1,17.7,4.8,-22.8,5.73,2.11,-12.5,23.9
2015-11-14 00:17:00,0.0,1.93051,0.00041,401.427,0.028,0.1234,0.0021,140.001,45.000,31517.87366,1.93286,402.025,31.935,45.070,45.000,0.00,0.09,-272.74,-272.80,-4,517,-944,17.5,4.7,-23.2,17.7,4.8,-22.9,5.73,2.08,-12.5,23.9
2015-11-14 00:18:00,0.0,1.93065,0.00031,401.414,0.031,0.1224,0.0009,140.003,45.000,31517.31021,1.93299,402.005,31.934,45.070,45.000,0.00,0.09,-272.74,-272.80,-4,517,-944,17.5,4.7,-23.2,17.7,4.8,-22.9,5.73,2.02,-12.6,23.9
2015-11-14 00:19:00,0.0,1.93032,0.00037,401.418,0.034,0.1229,0.0015,140.002,45.000,31517.04773,1.93267,402.014,31.937,45.070,45.000,0.00,0.09,-272.73,-272.80,-4,517,-944,17.5,4.7,-23.2,17.6,4.8,-22.9,5.73,1.96,-12.6,23.9
2015-11-14 00:20:00,0.0,1.92967,0.00042,401.393,0.028,0.1241,0.0020,140.000,45.000,31517.86271,1.93203,401.993,31.931,45.070,44.999,0.00,0.09,-272.74,-272.80,-4,518,-944,17.5,4.8,-23.1,17.7,4.8,-22.9,5.73,1.93,-12.6,23.9
2015-11-14 00:21:00,0.0,1.92963,0.00033,401.413,0.027,0.1243,0.0018,139.998,45.000,31517.81606,1.93198,402.013,31.933,45.070,45.000,0.00,0.09,-272.74,-272.80,-4,517,-944,17.5,4.8,-23.1,17.7,4.8,-22.8,5.73,1.94,-12.6,23.9
2015-11-14 00:22:00,0.0,1.92927,0.00042,401.369,0.039,0.1239,0.0022,140.001,45.000,31519.35519,1.93168,401.969,31.936,45.070,45.000,0.00,0.09,-272.74,-272.79,-3,518,-944,17.5,4.8,-23.1,17.7,4.9,-22.8,5.73,2.00,-12.6,23.9
2015-11-14 00:23:00,0.0,1.92952,0.00034,401.385,0.030,0.1248,0.0010,140.000,45.000,31518.86107,1.93187,401.989,31.923,45.070,45.000,0.00,0.09,-272.74,-272.79,-3,517,-944,17.5,4.8,-23.1,17.6,4.9,-22.8,5.73,2.07,-12.6,23.9
2015-11-14 00:24:00,0.0,1.92972,0.00029,401.403,0.039,0.1241,0.0016,140.000,45.000,31516.91756,1.93207,402.002,31.908,45.070,45.000,0.00,0.09,-272.75,-272.79,-3,517,-944,17.5,4.8,-23.1,17.6,4.9,-22.8,5.73,2.11,-12.6,23.9
2015-11-14 00:25:00,0.0,1.92999,0.00042,401.428,0.025,0.1230,0.0019,139.999,45.000,31516.17231,1.93232,402.024,31.881,45.070,45.000,0.00,0.09,-272.74,-272.79,-3,517,-944,17.5,4.8,-23.1,17.6,4.9,-22.8,5.73,2.11,-12.6,23.8
2015-11-14 00:26:00,0.0,1.93003,0.00036,401.432,0.028,0.1241,0.0020,139.999,45.000,31516.09040,1.93241,402.032,31.872,45.070,45.000,0.00,0.09,-272.73,-272.80,-3,517,-944,17.5,4.8,-23.1,17.6,4.9,-22.8,5.73,2.05,-12.6,23.8
2015-11-14 00:27:00,0.0,1.93019,0.00044,401.441,0.026,0.1235,0.0016,140.001,45.000,31514.73503,1.93254,402.037,31.867,45.070,45.000,0.00,0.09,-272.74,-272.80,-3,517,-944,17.5,4.8,-23.2,17.6,4.8,-22.9,5.73,1.99,-12.6,23.8
2015-11-14 00:28:00,0.0,1.93035,0.00035,401.449,0.031,0.1229,0.0017,140.000,45.000,31512.89236,1.93268,402.045,31.851,45.070,45.000,0.00,0.09,-272.74,-272.80,-3,517,-944,17.4,4.8,-23.2,17.6,4.8,-22.9,5.73,1.94,-12.7,23.8
2015-11-14 00:29:00,0.0,1.93057,0.00033,401.455,0.039,0.1225,0.0013,139.999,45.000,31513.22533,1.93291,402.047,31.854,45.070,45.000,0.00,0.09,-272.73,-272.79,-3,517,-944,17.4,4.8,-23.2,17.6,4.8,-22.9,5.73,1.92,-12.7,23.8
2015-11-14 00:30:00,0.0,1.93091,0.00046,401.501,0.029,0.1219,0.0017,139.999,45.000,31511.73382,1.93322,402.090,31.842,45.070,45.000,0.00,0.09,-272.74,-272.80,-3,517,-944,17.4,4.7,-23.2,17.6,4.8,-22.9,5.73,1.97,-12.7,23.8
2015-11-14 00:31:00,0.0,1.93101,0.00041,401.500,0.030,0.1221,0.0019,140.002,45.000,31512.31360,1.93333,402.091,31.850,45.070,45.000,0.00,0.09,-272.75,-272.80,-3,517,-944,17.4,4.7,-23.3,17.6,4.8,-23.0,5.73,2.03,-12.7,23.8
2015-11-14 00:32:00,0.0,1.93116,0.00051,401.508,0.028,0.1212,0.0018,140.000,45.000,31511.24705,1.93345,402.095,31.832,45.070,45.000,0.00,0.09,-272.74,-272.79,-3,517,-944,17.4,4.7,-23.3,17.6,4.8,-23.0,5.73,2.08,-12.7,23.8
2015-11-14 00:33:00,0.0,1.93118,0.00034,401.498,0.033,0.1212,0.0014,140.000,45.000,31511.13652,1.93349,402.085,31.815,45.070,45.000,0.00,0.09,-272.74,-272.79,-3,517,-944,17.4,4.7,-23.3,17.6,4.8,-23.0,5.73,2.12,-12.7,23.8
2015-11-14 00:34:00,0.0,1.93124,0.00042,401.507,0.029,0.1213,0.0016,139.999,45.000,31510.99391,1.93354,402.093,31.830,45.070,45.000,0.00,0.09,-272.75,-272.80,-3,517,-944,17.4,4.7,-23.3,17.6,4.8,-23.0,5.73,2.09,-12.7,23.8
2015-11-14 00:35:00,0.0,1.93080,0.00046,401.478,0.034,0.1220,0.0018,140.002,45.000,31512.54172,1.93317,402.067,31.818,45.070,45.000,0.00,0.09,-272.74,-272.80,-3,517,-944,17.4,4.7,-23.3,17.5,4.8,-23.0,5.73,2.03,-12.7,23.8
2015-11-14 00:36:00,0.0,1.93104,0.00037,401.501,0.033,0.1211,0.0012,139.998,45.000,31510.05468,1.93331,402.088,31.813,45.070,45.000,0.00,0.09,-272.73,-272.79,-3,517,-944,17.4,4.7,-23.4,17.5,4.8,-23.0,5.73,1.97,-12.7,23.8
2015-11-14 00:37:00,0.0,1.93136,0.00041,401.485,0.034,0.1214,0.0015,140.000,45.000,31509.87658,1.93368,402.073,31.787,45.070,45.000,0.00,0.09,-272.74,-272.80,-3,517,-944,17.4,4.7,-23.4,17.5,4.8,-23.0,5.73,1.92,-12.8,23.8
2015-11-14 00:38:00,0.0,1.93134,0.00035,401.486,0.032,0.1200,0.0015,140.000,45.000,31510.05199,1.93363,402.065,31.801,45.070,45.000,0.00,0.09,-272.74,-272.79,-3,517,-944,17.4,4.7,-23.4,17.5,4.8,-23.1,5.73,1.95,-12.7,23.8
2015-11-14 00:39:00,0.0,1.93137,0.00048,401.484,0.029,0.1204,0.0019,139.998,45.000,31509.78370,1.93362,402.067,31.813,45.070,45.000,0.00,0.09,-272.73,-272.79,-3,517,-944,17.4,4.7,-23.4,17.5,4.8,-23.1,5.73,1.99,-12.7,23.8
2015-11-14 00:40:00,0.0,1.93145,0.00036,401.508,0.028,0.1204,0.0013,139.999,45.000,31508.87995,1.93377,402.090,31.801,45.070,45.000,0.00,0.09,-272.74,-272.80,-3,517,-944,17.4,4.7,-23.4,17.5,4.8,-23.1,5.73,2.06,-12.8,23.8
2015-11-14 00:41:00,0.0,1.93176,0.00040,401.480,0.041,0.1204,0.0021,139.999,45.000,31509.87475,1.93404,402.063,31.773,45.070,45.000,0.00,0.09,-272.74,-272.80,-3,517,-944,17.4,4.7,-23.5,17.5,4.7,-23.1,5.73,2.11,-12.8,23.8
2015-11-14 00:42:00,0.0,1.93157,0.00038,401.486,0.024,0.1194,0.0015,139.999,45.000,31509.28269,1.93385,402.063,31.751,45.070,45.000,0.00,0.09,-272.74,-272.79,-3,517,-944,17.4,4.7,-23.4,17.5,4.7,-23.2,5.73,2.11,-12.8,23.8
2015-11-14 00:43:00,0.0,1.93126,0.00045,401.467,0.036,0.1205,0.0020,140.000,45.000,31506.79595,1.93358,402.051,31.751,45.070,45.000,0.00,0.09,-272.73,-272.79,-3,517,-944,17.4,4.7,-23.4,17.5,4.8,-23.1,5.73,2.07,-12.8,23.8
2015-11-14 00:44:00,0.0,1.93119,0.00043,401.442,0.031,0.1215,0.0021,140.000,45.000,31505.01801,1.93350,402.030,31.750,45.070,45.000,0.00,0.09,-272.74,-272.80,-3,517,-944,17.3,4.7,-23.4,17.5,4.8,-23.0,5.73,2.01,-12.8,23.8
2015-11-14 00:45:00,0.0,1.93117,0.00036,401.452,0.031,0.1211,0.0017,140.000,45.000,31504.62984,1.93349,402.037,31.752,45.070,45.000,0.00,0.09,-272.74,-272.80,-3,517,-944,17.3,4.7,-23.4,17.5,4.8,-23.1,5.73,1.95,-12.8,23.8
2015-11-14 00:46:00,0.0,1.93115,0.00041,401.444,0.029,0.1213,0.0018,140.000,45.000,31501.44180,1.93345,402.031,31.750,45.070,45.000,0.00,0.09,-272.74,-272.79,-3,517,-944,17.3,4.7,-23.3,17.5,4.8,-23.0,5.73,1.93,-12.8,23.8
2015-11-14 00:47:00,0.0,1.93073,0.00045,401.415,0.040,0.1221,0.0017,140.000,45.000,31502.72693,1.93304,402.007,31.750,45.070,45.000,0.00,0.09,-272.74,-272.80,-3,517,-944,17.3,4.7,-23.3,17.5,4.8,-23.0,5.73,1.95,-12.9,23.8
2015-11-14 00:48:00,0.0,1.93051,0.00029,401.376,0.035,0.1229,0.0017,139.998,45.000,31505.44712,1.93287,401.970,31.750,45.070,45.000,0.00,0.09,-272.75,-272.79,-3,517,-944,17.3,4.8,-23.2,17.5,4.8,-22.9,5.73,2.02,-12.8,23.7
2015-11-14 00:49:00,0.0,1.93052,0.00029,401.368,0.033,0.1231,0.0018,139.998,45.000,31502.50386,1.93288,401.964,31.739,45.070,45.000,0.00,0.09,-272.74,-272.79,-3,517,-944,17.3,4.8,-23.2,17.5,4.9,-22.9,5.73,2.08,-12.8,23.7
2015-11-14 00:50:00,0.0,1.93079,0.00039,401.391,0.024,0.1233,0.0017,139.999,45.000,31504.25686,1.93312,401.986,31.739,45.070,45.000,0.00,0.09,-272.74,-272.79,-3,517,-944,17.3,4.8,-23.1,17.5,4.9,-22.9,5.73,2.12,-12.9,23.7
2015-11-14 00:51:00,0.0,1.93090,0.00032,401.374,0.033,0.1238,0.0020,139.998,45.000,31505.14869,1.93324,401.973,31.745,45.070,45.000,0.00,0.09,-272.75,-272.80,-3,517,-944,17.3,4.8,-23.2,17.5,4.9,-22.9,5.73,2.10,-12.9,23.7
2015-11-14 00:52:00,0.0,1.93066,0.00047,401.373,0.029,0.1237,0.0019,140.000,45.000,31504.11938,1.93305,401.972,31.746,45.070,45.000,0.00,0.09,-272.74,-272.79,-3,517,-944,17.3,4.8,-23.1,17.5,4.9,-22.9,5.73,2.04,-12.9,23.7
2015-11-14 00:53:00,0.0,1.93070,0.00043,401.375,0.032,0.1239,0.0017,140.000,45.000,31502.65114,1.93304,401.974,31.748,45.070,45.000,0.00,0.09,-272.74,-272.80,-3,517,-944,17.3,4.8,-23.1,17.5,4.9,-22.8,5.73,1.98,-12.9,23.7
2015-11-14 00:54:00,0.0,1.93084,0.00029,401.373,0.034,0.1237,0.0018,140.000,45.000,31501.31532,1.93318,401.971,31.750,45.070,45.000,0.00,0.09,-272.74,-272.80,-3,517,-944,17.3,4.8,-23.1,17.5,4.9,-22.8,5.73,1.93,-12.9,23.7
2015-11-14 00:55:00,0.0,1.93085,0.00038,401.375,0.030,0.1238,0.0013,140.000,45.000,31500.90184,1.93324,401.973,31.745,45.070,45.000,0.00,0.09,-272.73,-272.80,-3,517,-944,17.3,4.8,-23.1,17.5,4.9,-22.8,5.73,1.93,-12.9,23.7
2015-11-14 00:56:00,0.0,1.93063,0.00048,401.373,0.047,0.1243,0.0016,140.001,45.000,31501.73296,1.93299,401.974,31.747,45.070,45.000,0.00,0.09,-272.73,-272.79,-3,517,-944,17.3,4.8,-23.0,17.5,4.9,-22.8,5.73,1.98,-12.9,23.7
2015-11-14 00:57:00,0.0,1.93062,0.00032,401.353,0.037,0.1249,0.0015,139.996,45.000,31499.99299,1.93299,401.958,31.749,45.070,45.000,0.00,0.09,-272.74,-272.80,-3,517,-944,17.3,4.8,-23.0,17.5,4.9,-22.8,5.73,2.05,-12.9,23.7
2015-11-14 00:58:00,0.0,1.93036,0.00027,401.347,0.025,0.1260,0.0015,140.000,45.000,31503.14297,1.93277,401.956,31.742,45.070,45.000,0.00,0.09,-272.74,-272.80,-3,517,-944,17.3,4.9,-23.0,17.5,4.9,-22.7,5.73,2.11,-12.9,23.7
2015-11-14 00:59:00,0.0,1.93049,0.00034,401.356,0.024,0.1264,0.0020,140.000,45.000,31501.36568,1.93291,401.968,31.739,45.070,45.000,0.00,0.09,-272.73,-272.79,-3,517,-944,17.3,4.9,-23.0,17.5,5.0,-22.7,5.73,2.11,-12.9,23.7
2015-11-14 01:00:00,0.0,1.93019,0.00041,401.346,0.029,0.1266,0.0014,139.998,45.001,31499.85894,1.93259,401.958,31.706,45.070,45.000,0.00,0.09,-272.74,-272.80,-3,517,-944,17.3,4.9,-22.9,17.4,5.0,-22.7,5.73,2.08,-13.0,23.7
2015-11-14 01:01:00,0.0,1.93026,0.00041,401.350,0.033,0.1268,0.0022,139.998,45.001,31498.66804,1.93267,401.964,31.697,45.070,45.000,0.00,0.09,-272.75,-272.80,-3,517,-944,17.3,4.9,-22.9,17.4,5.0,-22.6,5.73,2.02,-13.0,23.7
2015-11-14 01:02:00,0.0,1.93039,0.00054,401.348,0.034,0.1269,0.0016,140.001,45.000,31499.21171,1.93278,401.961,31.691,45.070,45.000,0.00,0.09,-272.74,-272.80,-3,517,-944,17.3,4.9,-22.9,17.4,5.0,-22.6,5.73,1.95,-13.0,23.7
2015-11-14 01:03:00,0.0,1.93060,0.00036,401.352,0.024,0.1268,0.0019,139.999,45.000,31499.40265,1.93302,401.966,31.690,45.070,45.000,0.00,0.09,-272.74,-272.79,-3,517,-944,17.3,4.9,-22.9,17.4,5.0,-22.6,5.73,1.93,-13.0,23.7
2015-11-14 01:04:00,0.0,1.93068,0.00040,401.363,0.033,0.1269,0.0017,140.002,45.000,31499.52062,1.93310,401.976,31.684,45.070,45.000,0.00,0.09,-272.75,-272.79,-3,517,-944,17.3,4.9,-22.9,17.4,5.0,-22.6,5.73,1.95,-13.0,23.7
2015-11-14 01:05:00,0.0,1.93079,0.00030,401.368,0.032,0.1269,0.0019,139.997,45.000,31496.82960,1.93318,401.982,31.683,45.070,45.000,0.00,0.09,-272.74,-272.79,-3,517,-944,17.3,4.9,-22.9,17.4,5.0,-22.6,5.73,2.00,-13.0,23.7
2015-11-14 01:06:00,0.0,1.93089,0.00048,401.368,0.031,0.1261,0.0016,139.997,45.000,31495.74398,1.93333,401.979,31.647,45.070,45.000,0.00,0.09,-272.74,-272.79,-3,517,-944,17.3,4.9,-22.9,17.4,5.0,-22.6,5.73,2.08,-13.0,23.7
2015-11-14 01:07:00,0.0,1.93079,0.00035,401.381,0.028,0.1268,0.0018,139.999,45.000,31496.23493,1.93318,401.994,31.627,45.070,45.000,0.00,0.09,-272.74,-272.79,-3,517,-944,17.3,4.9,-22.9,17.4,5.0,-22.6,5.73,2.11,-13.0,23.7
2015-11-14 01:08:00,0.0,1.93110,0.00026,401.412,0.028,0.1259,0.0021,139.999,45.000,31495.27061,1.93348,402.021,31.631,45.070,45.000,0.00,0.09,-272.74,-272.80,-3,517,-944,17.3,4.9,-23.0,17.4,5.0,-22.6,5.73,2.11,-13.0,23.7
2015-11-14 01:09:00,0.0,1.93143,0.00034,401.402,0.032,0.1264,0.0016,140.001,45.000,31495.70725,1.93384,402.013,31.653,45.070,45.000,0.00,0.09,-272.73,-272.79,-3,517,-944,17.3,4.9,-23.0,17.4,5.0,-22.7,5.73,2.06,-13.0,23.7
2015-11-14 01:10:00,0.0,1.93134,0.00042,401.393,0.036,0.1254,0.0020,139.997,45.000,31496.33473,1.93372,402.000,31.683,45.070,45.000,0.00,0.09,-272.73,-272.80,-3,517,-944,17.3,4.9,-23.0,17.4,5.0,-22.7,5.73,1.99,-13.0,23.7
2015-11-14 01:11:00,0.0,1.93163,0.00026,401.407,0.036,0.1243,0.0017,139.999,45.000,31498.66650,1.93402,402.008,31.687,45.070,45.000,0.00,0.09,-272.74,-272.80,-3,517,-944,17.3,4.8,-23.1,17.4,4.9,-22.8,5.73,1.94,-13.0,23.6
2015-11-14 01:12:00,0.0,1.93124,0.00039,401.388,0.038,0.1252,0.0022,139.999,45.000,31496.32905,1.93362,401.995,31.686,45.070,45.000,0.00,0.09,-272.74,-272.80,-3,517,-944,17.2,4.8,-23.1,17.4,4.9,-22.8,5.73,1.93,-13.1,23.6
2015-11-14 01:13:00,0.0,1.93103,0.00044,401.394,0.034,0.1264,0.0012,139.999,45.000,31493.37655,1.93347,402.006,31.688,45.070,45.000,0.00,0.09,-272.74,-272.80,-3,517,-943,17.2,4.9,-23.0,17.4,5.0,-22.8,5.73,1.96,-13.1,23.6
2015-11-14 01:14:00,0.0,1.93125,0.00038,401.390,0.032,0.1256,0.0016,139.997,45.000,31495.53339,1.93363,401.997,31.686,45.070,45.000,0.00,0.09,-272.74,-272.80,-3,517,-944,17.2,4.9,-23.0,17.3,5.0,-22.7,5.73,2.03,-13.1,23.6
2015-11-14 01:15:00,0.0,1.93105,0.00044,401.400,0.028,0.1260,0.0016,139.998,45.000,31494.78822,1.93344,402.010,31.666,45.070,45.000,0.00,0.09,-272.74,-272.80,-3,517,-944,17.2,4.9,-23.1,17.3,5.0,-22.7,5.73,2.10,-13.1,23.6
2015-11-14 01:16:00,0.0,1.93074,0.00045,401.389,0.033,0.1252,0.0020,139.999,45.000,31491.60647,1.93312,401.995,31.639,45.070,45.000,0.00,0.09,-272.74,-272.79,-3,517,-943,17.2,4.9,-23.0,17.3,5.0,-22.7,5.73,2.12,-13.1,23.6
2015-11-14 01:17:00,0.0,1.93062,0.00031,401.386,0.039,0.1262,0.0015,140.001,45.000,31492.77861,1.93304,401.996,31.637,45.070,45.000,0.00,0.09,-272.74,-272.80,-3,517,-943,17.2,4.9,-23.0,17.3,5.0,-22.7,5.73,2.09,-13.1,23.6
2015-11-14 01:18:00,0.0,1.93062,0.00044,401.394,0.032,0.1255,0.0014,139.999,45.000,31490.48331,1.93303,402.000,31.631,45.070,45.000,0.00,0.09,-272.74,-272.80,-3,517,-943,17.2,4.9,-23.0,17.3,5.0,-22.7,5.73,2.04,-13.1,23.6
2015-11-14 01:19:00,0.0,1.93070,0.00050,401.406,0.023,0.1265,0.0014,139.998,45.000,31489.36980,1.93309,402.018,31.626,45.070,45.000,0.00,0.09,-272.73,-272.79,-3,517,-944,17.2,4.9,-23.0,17.3,5.0,-22.7,5.73,1.97,-13.1,23.6
2015-11-14 01:20:00,0.0,1.93049,0.00040,401.396,0.035,0.1255,0.0013,139.997,45.000,31491.06300,1.93289,402.004,31.624,45.070,45.000,0.00,0.09,-272.73,-272.79,-3,517,-943,17.2,4.9,-23.0,17.3,5.0,-22.7,5.73,1.94,-13.1,23.6
2015-11-14 01:21:00,0.0,1.93046,0.00036,401.372,0.033,0.1255,0.0020,140.000,45.000,31491.36806,1.93285,401.977,31.617,45.070,45.000,0.00,0.09,-272.74,-272.80,-3,517,-944,17.2,4.9,-23.0,17.3,5.0,-22.7,5.73,1.94,-13.1,23.6
2015-11-14 01:22:00,0.0,1.93042,0.00042,401.397,0.028,0.1263,0.0016,139.999,45.000,31489.73302,1.93284,402.008,31.596,45.070,45.000,0.00,0.09,-272.74,-272.79,-3,516,-943,17.1,4.9,-23.0,17.3,5.0,-22.7,5.73,1.98,-13.2,23.6
2015-11-14 01:23:00,0.0,1.93041,0.00025,401.392,0.035,0.1265,0.0017,139.997,45.000,31486.81941,1.93278,402.003,31.564,45.070,45.000,0.00,0.09,-272.73,-272.79,-3,516,-943,17.1,4.9,-22.9,17.3,5.0,-22.7,5.73,2.04,-13.1,23.6
2015-11-14 01:24:00,0.0,1.93027,0.00034,401.389,0.028,0.1267,0.0017,140.000,45.000,31489.08686,1.93271,402.002,31.563,45.070,45.000,0.00,0.09,-272.74,-272.80,-3,516,-943,17.1,5.0,-22.9,17.3,5.0,-22.6,5.73,2.10,-13.1,23.6
2015-11-14 01:25:00,0.0,1.92957,0.00026,401.402,0.028,0.1264,0.0018,139.997,45.000,31490.43225,1.93198,402.015,31.563,45.070,45.000,0.00,0.09,-272.74,-272.80,-3,516,-943,17.2,5.0,-22.9,17.3,5.0,-22.6,5.73,2.12,-13.2,23.6
2015-11-14 01:26:00,0.0,1.92992,0.00043,401.381,0.036,0.1271,0.0015,139.999,45.001,31492.51623,1.93234,401.996,31.551,45.071,45.000,0.00,0.09,-272.74,-272.79,-3,516,-943,17.2,5.0,-22.9,17.3,5.0,-22.7,5.73,2.09,-13.2,23.6
2015-11-14 01:27:00,0.0,1.93003,0.00044,401.382,0.031,0.1284,0.0017,139.999,45.000,31492.63265,1.93248,402.003,31.560,45.070,45.000,0.00,0.09,-272.73,-272.79,-3,517,-943,17.2,5.0,-22.9,17.3,5.1,-22.6,5.73,2.02,-13.2,23.6
2015-11-14 01:28:00,0.0,1.93004,0.00052,401.370,0.028,0.1278,0.0013,139.998,45.000,31492.89875,1.93250,401.988,31.561,45.070,45.000,0.00,0.09,-272.75,-272.80,-3,516,-943,17.1,5.0,-22.9,17.3,5.1,-22.6,5.73,1.96,-13.2,23.6
2015-11-14 01:29:00,0.0,1.93011,0.00041,401.384,0.032,0.1274,0.0017,140.000,45.000,31491.68717,1.93248,402.001,31.544,45.070,45.000,0.00,0.09,-272.74,-272.80,-3,516,-943,17.1,5.0,-22.8,17.3,5.1,-22.6,5.73,1.93,-13.2,23.6
2015-11-14 01:30:00,0.0,1.93008,0.00041,401.365,0.031,0.1276,0.0019,139.997,45.000,31488.17189,1.93254,401.983,31.534,45.070,45.000,0.00,0.09,-272.74,-272.79,-3,516,-943,17.1,5.0,-22.8,17.3,5.1,-22.6,5.73,1.95,-13.2,23.6
2015-11-14 01:31:00,0.0,1.93020,0.00032,401.388,0.043,0.1294,0.0017,140.001,44.999,31487.70875,1.93265,402.013,31.555,45.070,45.000,0.00,0.09,-272.74,-272.80,-3,517,-943,17.1,5.0,-22.8,17.3,5.1,-22.5,5.73,1.99,-13.2,23.5
2015-11-14 01:32:00,0.0,1.92945,0.00035,401.355,0.030,0.1293,0.0013,140.000,45.000,31488.47111,1.93193,401.980,31.557,45.070,45.000,0.00,0.09,-272.74,-272.79,-3,516,-943,17.1,5.1,-22.7,17.3,5.1,-22.5,5.73,2.06,-13.2,23.5
2015-11-14 01:33:00,0.0,1.92976,0.00033,401.361,0.023,0.1290,0.0011,139.998,45.000,31486.70699,1.93221,401.985,31.546,45.070,45.000,0.00,0.09,-272.73,-272.79,-3,517,-943,17.1,5.1,-22.7,17.3,5.1,-22.4,5.73,2.10,-13.2,23.5
2015-11-14 01:34:00,0.0,1.92961,0.00036,401.356,0.040,0.1300,0.0015,140.000,45.000,31488.18618,1.93208,401.984,31.530,45.070,45.000,0.00,0.09,-272.73,-272.80,-3,516,-943,17.1,5.1,-22.6,17.3,5.2,-22.4,5.73,2.11,-13.2,23.5
2015-11-14 01:35:00,0.0,1.92917,0.00031,401.353,0.020,0.1308,0.0014,140.002,45.000,31489.34833,1.93166,401.986,31.508,45.070,45.000,0.00,0.09,-272.74,-272.81,-3,516,-944,17.1,5.1,-22.6,17.3,5.2,-22.3,5.73,2.08,-13.2,23.5
2015-11-14 01:36:00,0.0,1.92952,0.00038,401.354,0.025,0.1308,0.0015,139.997,45.000,31488.23071,1.93200,401.987,31.500,45.070,45.000,0.00,0.09,-272.73,-272.79,-3,516,-943,17.1,5.1,-22.6,17.2,5.2,-22.3,5.73,2.02,-13.3,23.5
2015-11-14 01:37:00,0.0,1.92975,0.00041,401.369,0.025,0.1310,0.0017,140.000,45.000,31486.33914,1.93223,402.003,31.500,45.070,45.000,0.00,0.09,-272.73,-272.79,-3,516,-943,17.1,5.1,-22.6,17.2,5.2,-22.3,5.73,1.97,-13.3,23.5
2015-11-14 01:38:00,0.0,1.92940,0.00033,401.369,0.035,0.1305,0.0014,139.999,45.000,31488.81664,1.93191,401.999,31.500,45.071,45.000,0.00,0.09,-272.74,-272.80,-3,516,-943,17.1,5.1,-22.6,17.2,5.2,-22.3,5.73,1.93,-13.3,23.5
2015-11-14 01:39:00,0.0,1.92961,0.00036,401.388,0.031,0.1307,0.0016,139.998,45.000,31487.28393,1.93208,402.020,31.500,45.070,45.000,0.00,0.09,-272.74,-272.79,-3,516,-943,17.1,5.1,-22.6,17.2,5.2,-22.3,5.73,1.94,-13.3,23.5
2015-11-14 01:40:00,0.0,1.92939,0.00042,401.389,0.031,0.1299,0.0024,139.998,45.000,31486.06387,1.93189,402.019,31.499,45.070,45.000,0.00,0.09,-272.74,-272.79,-3,516,-943,17.1,5.1,-22.6,17.2,5.2,-22.3,5.73,2.00,-13.3,23.5
2015-11-14 01:41:00,0.0,1.92956,0.00035,401.399,0.033,0.1313,0.0019,139.998,45.000,31484.01852,1.93203,402.033,31.473,45.070,45.000,0.00,0.09,-272.75,-272.80,-3,516,-943,17.1,5.1,-22.6,17.2,5.2,-22.3,5.73,2.06,-13.3,23.5
2015-11-14 01:42:00,0.0,1.92935,0.00038,401.374,0.022,0.1305,0.0017,140.000,45.000,31486.13394,1.93183,402.005,31.443,45.070,45.000,0.00,0.09,-272.75,-272.79,-3,516,-943,17.1,5.1,-22.6,17.2,5.2,-22.4,5.73,2.11,-13.3,23.5
2015-11-14 01:43:00,0.0,1.92933,0.00037,401.354,0.036,0.1305,0.0016,139.999,45.000,31487.10574,1.93183,401.986,31.440,45.070,45.000,0.00,0.09,-272.74,-272.79,-3,516,-943,17.1,5.1,-22.6,17.2,5.2,-22.3,5.73,2.12,-13.3,23.5
2015-11-14 01:44:00,0.0,1.92933,0.00031,401.378,0.030,0.1309,0.0015,139.998,45.000,31486.93353,1.93183,402.010,31.440,45.070,45.000,0.00,0.09,-272.74,-272.79,-3,516,-943,17.1,5.1,-22.6,17.2,5.2,-22.3,5.73,2.07,-13.3,23.5
2015-11-14 01:45:00,0.0,1.92925,0.00029,401.407,0.028,0.1309,0.0016,140.001,45.000,31486.51175,1.93173,402.041,31.440,45.070,45.000,0.00,0.09,-272.74,-272.80,-3,516,-943,17.1,5.1,-22.6,17.2,5.2,-22.3,5.73,2.00,-13.3,23.5